Location: Unspecified
(0.0000°N, 0.0000°E)
Time: 13:21:53
(UTC+00:00)

RS-15 - Pass Details

Date: 11 December 2017
Orbit: 1889 x 2156 km, 64.8° (Epoch: 25 April)

Event Time Altitude Azimuth Distance (km) Brightness Sun altitude
Exits shadow 01:40:53 36° 128° (SE) 2,738 8.9 -55.2°
Drops below altitude 10° 01:46:40 10° 145° (SE) 4,272 10.2 -54.1°
Sets 01:49:57 0° 149° (SSE) 5,267 10.8 -53.5°
